| time (UTC) | temp F | wind direction | speed knots | gust knots | rain 1hr in | rain 24hr in | rain mn in | humidity % | barometer mb |
| 20260903220317 | 97 | 225 | 1.7 | 2.6 | 0.00 | 0.00 | 0.00 | 66 | 1016.9 |
| 20260903215722 | 98 | 225 | 1.7 | 2.6 | 0.00 | 0.00 | 0.00 | 62 | 1016.9 |
| 20260903215142 | 97 | 158 | 1.7 | 1.7 | 0.00 | 0.00 | 0.00 | 62 | 1017.2 |
| 20260903214506 | 96 | 225 | 1.7 | 1.7 | 0.00 | 0.00 | 0.00 | 63 | 1016.9 |
| 20260903213336 | 98 | 203 | 1.7 | 2.6 | 0.00 | 0.00 | 0.00 | 61 | 1017.2 |
| 20260903212722 | 99 | 293 | 0.0 | 3.5 | 0.00 | 0.00 | 0.00 | 59 | 1017.2 |
| 20260903212112 | 99 | 203 | 1.7 | 1.7 | 0.00 | 0.00 | 0.00 | 60 | 1017.2 |
| 20260903211534 | 99 | 225 | 1.7 | 1.7 | 0.00 | 0.00 | 0.00 | 59 | 1017.6 |
| 20260903210324 | 99 | 180 | 2.6 | 3.5 | 0.00 | 0.00 | 0.00 | 60 | 1017.6 |
| 20260903205707 | 98 | 135 | 1.7 | 4.3 | 0.00 | 0.00 | 0.00 | 59 | 1017.9 |
| 20260903205146 | 99 | 225 | 2.6 | 4.3 | 0.00 | 0.00 | 0.00 | 60 | 1017.9 |
| 20260903204536 | 98 | 248 | 1.7 | 4.3 | 0.00 | 0.00 | 0.00 | 60 | 1017.9 |
| 20260903203919 | 99 | 180 | 1.7 | 3.5 | 0.00 | 0.00 | 0.00 | 59 | 1017.9 |
| 20260903203310 | 100 | 203 | 1.7 | 3.5 | 0.00 | 0.00 | 0.00 | 59 | 1017.9 |
| 20260903202114 | 98 | 203 | 2.6 | 2.6 | 0.00 | 0.00 | 0.00 | 58 | 1017.9 |
| 20260903201522 | 100 | 203 | 3.5 | 3.5 | 0.00 | 0.00 | 0.00 | 58 | 1018.2 |
| 20260903200908 | 100 | 270 | 2.6 | 2.6 | 0.00 | 0.00 | 0.00 | 58 | 1018.2 |
| 20260903200344 | 100 | 203 | 3.5 | 3.5 | 0.00 | 0.00 | 0.00 | 58 | 1018.2 |
| 20260903195707 | 101 | 293 | 1.7 | 4.3 | 0.00 | 0.00 | 0.00 | 56 | 1018.2 |
| 20260903195111 | 101 | 270 | 1.7 | 2.6 | 0.00 | 0.00 | 0.00 | 57 | 1018.2 |
| 20260903194544 | 100 | 248 | 3.5 | 3.5 | 0.00 | 0.00 | 0.00 | 57 | 1018.2 |
| 20260903193947 | 100 | 225 | 0.9 | 5.2 | 0.00 | 0.00 | 0.00 | 57 | 1018.6 |
| 20260903192714 | 100 | 338 | 2.6 | 2.6 | 0.00 | 0.00 | 0.00 | 58 | 1018.6 |
| 20260903192139 | 99 | 180 | 3.5 | 3.5 | 0.00 | 0.00 | 0.00 | 58 | 1018.9 |
| 20260903191546 | 99 | 113 | 1.7 | 1.7 | 0.00 | 0.00 | 0.00 | 58 | 1018.9 |
| 20260903190945 | 99 | 0 | 1.7 | 3.5 | 0.00 | 0.00 | 0.00 | 59 | 1018.9 |
| 20260903190337 | 100 | 23 | 1.7 | 3.5 | 0.00 | 0.00 | 0.00 | 58 | 1019.3 |
| 20260903185112 | 99 | 248 | 2.6 | 2.6 | 0.00 | 0.00 | 0.00 | 58 | 1018.9 |
| 20260903184523 | 100 | 225 | 1.7 | 2.6 | 0.00 | 0.00 | 0.00 | 57 | 1019.3 |
| 20260903183933 | 100 | 45 | 1.7 | 2.6 | 0.00 | 0.00 | 0.00 | 57 | 1019.3 |
| 20260903183306 | 100 | 180 | 1.7 | 3.5 | 0.00 | 0.00 | 0.00 | 56 | 1019.3 |
| 20260903182707 | 103 | 270 | 0.9 | 3.5 | 0.00 | 0.00 | 0.00 | 54 | 1019.3 |
| 20260903182137 | 102 | 45 | 3.5 | 3.5 | 0.00 | 0.00 | 0.00 | 54 | 1019.3 |
| 20260903181538 | 101 | 23 | 2.6 | 4.3 | 0.00 | 0.00 | 0.00 | 54 | 1019.3 |
| 20260903180926 | 99 | 0 | 2.6 | 4.3 | 0.00 | 0.00 | 0.00 | 57 | 1019.3 |
| 20260903180346 | 99 | 45 | 2.6 | 5.2 | 0.00 | 0.00 | 0.00 | 58 | 1019.3 |
| 20260903175707 | 98 | 315 | 0.9 | 3.5 | 0.00 | 0.00 | 0.00 | 57 | 1019.6 |
| 20260903175119 | 98 | 45 | 0.0 | 1.7 | 0.00 | 0.00 | 0.00 | 58 | 1019.6 |
| 20260903174541 | 100 | 23 | 1.7 | 1.7 | 0.00 | 0.00 | 0.00 | 57 | 1019.6 |
| 20260903173943 | 100 | 180 | 0.9 | 2.6 | 0.00 | 0.00 | 0.00 | 58 | 1019.6 |
| 20260903173347 | 99 | 315 | 1.7 | 3.5 | 0.00 | 0.00 | 0.00 | 59 | 1019.6 |
| 20260903172111 | 98 | 203 | 0.0 | 3.5 | 0.00 | 0.00 | 0.00 | 60 | 1019.6 |
| 20260903171521 | 98 | 225 | 1.7 | 1.7 | 0.00 | 0.00 | 0.00 | 63 | 1019.9 |
| 20260903170347 | 98 | 45 | 4.3 | 5.2 | 0.00 | 0.00 | 0.00 | 62 | 1019.9 |
| 20260903165747 | 98 | 225 | 0.0 | 0.9 | 0.00 | 0.00 | 0.00 | 64 | 1019.9 |
| 20260903165109 | 98 | 203 | 1.7 | 1.7 | 0.00 | 0.00 | 0.00 | 63 | 1019.9 |
| 20260903164514 | 98 | 203 | 1.7 | 1.7 | 0.00 | 0.00 | 0.00 | 66 | 1019.9 |
| 20260903163922 | 96 | 203 | 2.6 | 5.2 | 0.00 | 0.00 | 0.00 | 67 | 1020.3 |
| 20260903163314 | 97 | 180 | 2.6 | 3.5 | 0.00 | 0.00 | 0.00 | 68 | 1020.3 |
| 20260903162743 | 96 | 158 | 0.9 | 4.3 | 0.00 | 0.00 | 0.00 | 69 | 1020.3 |
| 20260903162108 | 96 | 180 | 0.9 | 1.7 | 0.00 | 0.00 | 0.00 | 70 | 1020.3 |
| 20260903160909 | 95 | 248 | 0.9 | 4.3 | 0.00 | 0.00 | 0.00 | 72 | 1020.6 |
| 20260903160307 | 95 | 203 | 1.7 | 2.6 | 0.00 | 0.00 | 0.00 | 73 | 1020.6 |
| 20260903155750 | 95 | 203 | 3.5 | 3.5 | 0.00 | 0.00 | 0.00 | 73 | 1020.6 |
| 20260903155146 | 94 | 203 | 2.6 | 3.5 | 0.00 | 0.00 | 0.00 | 73 | 1020.6 |
| 20260903154550 | 94 | 203 | 1.7 | 2.6 | 0.00 | 0.00 | 0.00 | 74 | 1020.6 |
| 20260903153930 | 94 | 158 | 3.5 | 3.5 | 0.00 | 0.00 | 0.00 | 73 | 1020.6 |
| 20260903153332 | 93 | 203 | 1.7 | 2.6 | 0.00 | 0.00 | 0.00 | 74 | 1020.6 |
| 20260903152749 | 94 | 225 | 1.7 | 1.7 | 0.00 | 0.00 | 0.00 | 75 | 1020.6 |
| 20260903152117 | 93 | 135 | 1.7 | 2.6 | 0.00 | 0.00 | 0.00 | 77 | 1020.6 |
| 20260903151534 | 93 | 225 | 0.9 | 2.6 | 0.00 | 0.00 | 0.00 | 77 | 1020.6 |
| 20260903150909 | 91 | 203 | 1.7 | 1.7 | 0.00 | 0.00 | 0.00 | 78 | 1020.6 |
| 20260903150336 | 92 | 0 | 1.7 | 1.7 | 0.00 | 0.00 | 0.00 | 76 | 1020.6 |
| 20260903145721 | 90 | 203 | 0.0 | 1.7 | 0.00 | 0.00 | 0.00 | 80 | 1020.6 |
| 20260903145137 | 90 | 203 | 0.0 | 1.7 | 0.00 | 0.00 | 0.00 | 80 | 1020.6 |
| 20260903144524 | 90 | 180 | 2.6 | 2.6 | 0.00 | 0.00 | 0.00 | 80 | 1020.6 |
| 20260903143911 | 89 | 23 | 1.7 | 2.6 | 0.00 | 0.00 | 0.00 | 80 | 1020.6 |
| 20260903143349 | 89 | 180 | 1.7 | 1.7 | 0.00 | 0.00 | 0.00 | 81 | 1020.6 |
| 20260903142717 | 88 | 203 | 0.0 | 0.9 | 0.00 | 0.00 | 0.00 | 83 | 1020.6 |
| 20260903141520 | 86 | 158 | 1.7 | 1.7 | 0.00 | 0.00 | 0.00 | 85 | 1020.6 |
| 20260903140339 | 85 | 68 | 0.0 | 1.7 | 0.00 | 0.00 | 0.00 | 88 | 1020.9 |
| 20260903135710 | 85 | 270 | 0.0 | 0.9 | 0.00 | 0.00 | 0.00 | 86 | 1020.9 |
| 20260903135149 | 84 | 225 | 0.9 | 1.7 | 0.00 | 0.00 | 0.00 | 89 | 1020.9 |
| 20260903134538 | 84 | 203 | 0.9 | 0.9 | 0.00 | 0.00 | 0.00 | 89 | 1020.9 |
| 20260903133922 | 82 | 225 | 0.9 | 0.9 | 0.00 | 0.00 | 0.00 | 92 | 1020.9 |
| 20260903132118 | 80 | 225 | 0.0 | 0.9 | 0.00 | 0.00 | 0.00 | 95 | 1020.9 |
| 20260903131542 | 80 | 180 | 0.0 | 0.0 | 0.00 | 0.00 | 0.00 | 95 | 1021.3 |
| 20260903130912 | 79 | 203 | 0.0 | 0.0 | 0.00 | 0.00 | 0.00 | 97 | 1021.3 |
| 20260903130309 | 78 | 180 | 0.0 | 0.0 | 0.00 | 0.00 | 0.00 | 99 | 1021.3 |
| 20260903125748 | 78 | 203 | 0.0 | 0.0 | 0.00 | 0.00 | 0.00 | 99 | 1021.6 |
| 20260903125122 | 76 | 45 | 0.0 | 0.0 | 0.00 | 0.00 | 0.00 | 99 | 1021.6 |
| 20260903124521 | 76 | 68 | 0.0 | 0.0 | 0.00 | 0.00 | 0.00 | 99 | 1021.6 |
| 20260903122715 | 75 | 158 | 0.0 | 0.0 | 0.00 | 0.00 | 0.00 | 99 | 1021.3 |
| 20260903122150 | 75 | 293 | 0.0 | 0.0 | 0.00 | 0.00 | 0.00 | 99 | 1021.3 |
| 20260903120946 | 73 | 293 | 0.0 | 0.9 | 0.00 | 0.00 | 0.00 | 99 | 1021.3 |
| 20260903120332 | 72 | 293 | 0.0 | 0.0 | 0.00 | 0.00 | 0.00 | 99 | 1021.3 |
| 20260903115741 | 71 | 270 | 0.0 | 0.0 | 0.00 | 0.00 | 0.00 | 99 | 1021.3 |
| 20260903115112 | 71 | 225 | 0.0 | 0.0 | 0.00 | 0.00 | 0.00 | 99 | 1021.3 |
| 20260903114544 | 71 | 0 | 0.0 | 0.0 | 0.00 | 0.00 | 0.00 | 99 | 1021.3 |
| 20260903113906 | 71 | 270 | 0.0 | 0.9 | 0.00 | 0.00 | 0.00 | 99 | 1020.9 |
| 20260903113322 | 71 | 203 | 0.0 | 0.0 | 0.00 | 0.00 | 0.00 | 99 | 1020.9 |
| 20260903112724 | 71 | 338 | 0.0 | 0.0 | 0.00 | 0.00 | 0.00 | 99 | 1020.9 |
| 20260903112110 | 70 | 248 | 0.0 | 0.0 | 0.00 | 0.00 | 0.00 | 99 | 1020.9 |
| 20260903111518 | 71 | 203 | 0.0 | 0.0 | 0.00 | 0.00 | 0.00 | 99 | 1020.9 |
| 20260903110912 | 71 | 270 | 0.0 | 0.0 | 0.00 | 0.00 | 0.00 | 99 | 1020.6 |
| 20260903110347 | 71 | 158 | 1.7 | 1.7 | 0.00 | 0.00 | 0.00 | 99 | 1020.6 |
| 20260903105709 | 71 | 203 | 0.9 | 0.9 | 0.00 | 0.00 | 0.00 | 99 | 1020.6 |
| 20260903104523 | 70 | 203 | 0.0 | 0.0 | 0.00 | 0.00 | 0.00 | 99 | 1020.6 |
| 20260903103932 | 70 | 203 | 0.0 | 0.0 | 0.00 | 0.00 | 0.00 | 99 | 1020.6 |
| 20260903102724 | 70 | 248 | 0.0 | 0.0 | 0.00 | 0.00 | 0.00 | 99 | 1020.6 |
| 20260903101537 | 71 | 225 | 0.0 | 0.0 | 0.00 | 0.00 | 0.00 | 99 | 1020.3 |
| 20260903100939 | 71 | 203 | 0.0 | 0.0 | 0.00 | 0.00 | 0.00 | 99 | 1020.3 |
| 20260903100316 | 71 | 203 | 0.0 | 0.0 | 0.00 | 0.00 | 0.00 | 99 | 1020.3 |
| 20260903095728 | 71 | 203 | 0.0 | 0.0 | 0.00 | 0.00 | 0.00 | 99 | 1020.3 |
| 20260903093345 | 71 | 270 | 0.0 | 0.0 | 0.00 | 0.00 | 0.00 | 99 | 1020.3 |
| 20260903092706 | 71 | 225 | 0.0 | 0.0 | 0.00 | 0.00 | 0.00 | 99 | 1020.3 |
| 20260903092127 | 71 | 225 | 0.0 | 0.0 | 0.00 | 0.00 | 0.00 | 99 | 1020.3 |
| 20260903091542 | 71 | 203 | 0.0 | 0.0 | 0.00 | 0.00 | 0.00 | 99 | 1020.3 |
| 20260903090914 | 71 | 203 | 0.0 | 0.0 | 0.00 | 0.00 | 0.00 | 99 | 1020.3 |
| 20260903090341 | 71 | 248 | 0.0 | 0.0 | 0.00 | 0.00 | 0.00 | 99 | 1020.3 |
| 20260903085130 | 71 | 203 | 0.0 | 0.0 | 0.00 | 0.00 | 0.00 | 99 | 1020.3 |
| 20260903084549 | 71 | 225 | 0.0 | 0.0 | 0.00 | 0.00 | 0.00 | 99 | 1020.3 |
| 20260903083943 | 71 | 270 | 0.0 | 0.0 | 0.00 | 0.00 | 0.00 | 99 | 1020.3 |
| 20260903083337 | 71 | 248 | 0.0 | 0.0 | 0.00 | 0.00 | 0.00 | 99 | 1020.3 |
| 20260903082709 | 71 | 248 | 0.0 | 0.0 | 0.00 | 0.00 | 0.00 | 99 | 1020.3 |
| 20260903080311 | 72 | 270 | 0.0 | 0.0 | 0.00 | 0.00 | 0.00 | 99 | 1020.3 |
| 20260903075721 | 72 | 225 | 0.0 | 0.0 | 0.00 | 0.00 | 0.00 | 99 | 1020.3 |
| 20260903074521 | 72 | 203 | 0.0 | 0.0 | 0.00 | 0.00 | 0.00 | 99 | 1020.3 |
| 20260903073915 | 72 | 248 | 0.0 | 0.0 | 0.00 | 0.00 | 0.00 | 99 | 1020.3 |
| 20260903073311 | 72 | 225 | 0.0 | 0.0 | 0.00 | 0.00 | 0.00 | 99 | 1020.3 |
| 20260903072115 | 72 | 0 | 0.0 | 0.0 | 0.00 | 0.00 | 0.00 | 99 | 1019.9 |
| 20260903071506 | 72 | 45 | 0.0 | 0.0 | 0.00 | 0.00 | 0.00 | 99 | 1019.9 |
| 20260903070338 | 72 | 225 | 0.0 | 0.0 | 0.00 | 0.00 | 0.00 | 99 | 1020.3 |
| 20260903064530 | 73 | 203 | 0.0 | 0.0 | 0.00 | 0.00 | 0.00 | 99 | 1020.3 |
| 20260903063923 | 72 | 203 | 0.0 | 1.7 | 0.00 | 0.00 | 0.00 | 99 | 1019.9 |
| 20260903063349 | 72 | 113 | 0.0 | 0.0 | 0.00 | 0.00 | 0.00 | 99 | 1019.9 |
| 20260903062738 | 72 | 270 | 0.0 | 0.0 | 0.00 | 0.00 | 0.00 | 99 | 1019.9 |
| 20260903061509 | 72 | 225 | 0.0 | 0.0 | 0.00 | 0.00 | 0.00 | 99 | 1019.9 |
| 20260903055742 | 73 | 248 | 0.0 | 0.0 | 0.00 | 0.00 | 0.00 | 99 | 1020.3 |
| 20260903055123 | 73 | 203 | 0.0 | 0.0 | 0.00 | 0.00 | 0.00 | 99 | 1020.3 |
| 20260903054511 | 73 | 203 | 0.0 | 0.0 | 0.00 | 0.00 | 0.00 | 99 | 1019.9 |
| 20260903053912 | 73 | 203 | 0.0 | 0.0 | 0.00 | 0.00 | 0.00 | 99 | 1020.3 |
| 20260903053326 | 73 | 203 | 0.0 | 0.0 | 0.00 | 0.00 | 0.00 | 99 | 1020.3 |
| 20260903052716 | 73 | 225 | 0.0 | 0.0 | 0.00 | 0.00 | 0.00 | 99 | 1020.3 |
| 20260903052140 | 73 | 225 | 0.0 | 0.0 | 0.00 | 0.00 | 0.00 | 99 | 1020.3 |
| 20260903051516 | 73 | 203 | 0.0 | 0.0 | 0.00 | 0.00 | 0.00 | 99 | 1020.3 |
| 20260903050946 | 73 | 225 | 0.0 | 0.0 | 0.00 | 0.00 | 0.00 | 99 | 1020.3 |
| 20260903050316 | 73 | 248 | 0.0 | 0.0 | 0.00 | 0.00 | 0.00 | 99 | 1020.3 |
| 20260903045748 | 73 | 293 | 0.0 | 0.0 | 0.00 | 0.00 | 0.00 | 99 | 1019.9 |
| 20260903045134 | 73 | 113 | 0.0 | 0.0 | 0.00 | 0.00 | 0.00 | 99 | 1019.9 |
| 20260903044533 | 74 | 225 | 0.0 | 0.0 | 0.00 | 0.00 | 0.00 | 99 | 1020.3 |
| 20260903043325 | 74 | 225 | 0.0 | 0.0 | 0.00 | 0.00 | 0.00 | 99 | 1020.3 |
| 20260903042124 | 74 | 270 | 0.0 | 0.0 | 0.00 | 0.00 | 0.00 | 99 | 1020.3 |
| 20260903041529 | 74 | 203 | 0.0 | 0.0 | 0.00 | 0.00 | 0.00 | 99 | 1020.3 |
| 20260903040939 | 74 | 225 | 0.0 | 0.0 | 0.00 | 0.00 | 0.00 | 99 | 1020.3 |
| 20260903040314 | 74 | 225 | 0.0 | 0.0 | 0.00 | 0.00 | 0.00 | 99 | 1020.3 |
| 20260903035743 | 74 | 225 | 0.0 | 0.0 | 0.00 | 0.00 | 0.00 | 99 | 1020.3 |
| 20260903035135 | 74 | 203 | 0.0 | 0.0 | 0.00 | 0.00 | 0.00 | 99 | 1020.3 |
| 20260903034513 | 74 | 203 | 0.0 | 0.0 | 0.00 | 0.00 | 0.00 | 99 | 1020.3 |
| 20260903033911 | 74 | 203 | 0.0 | 0.0 | 0.00 | 0.00 | 0.00 | 99 | 1020.3 |
| 20260903033312 | 74 | 203 | 0.0 | 0.0 | 0.00 | 0.00 | 0.00 | 99 | 1020.3 |
| 20260903032713 | 75 | 203 | 0.0 | 0.0 | 0.00 | 0.00 | 0.00 | 99 | 1020.3 |
| 20260903032137 | 75 | 225 | 0.0 | 0.0 | 0.00 | 0.00 | 0.00 | 99 | 1020.3 |
| 20260903031547 | 75 | 225 | 0.0 | 0.0 | 0.00 | 0.00 | 0.00 | 99 | 1020.3 |
| 20260903030924 | 75 | 225 | 0.0 | 0.0 | 0.00 | 0.00 | 0.00 | 99 | 1020.3 |
| 20260903030322 | 75 | 248 | 0.0 | 0.0 | 0.00 | 0.00 | 0.00 | 99 | 1020.3 |
| 20260903025125 | 75 | 203 | 0.0 | 0.0 | 0.00 | 0.00 | 0.00 | 99 | 1020.3 |
| 20260903024531 | 75 | 248 | 0.0 | 0.0 | 0.00 | 0.00 | 0.00 | 99 | 1020.3 |
| 20260903023946 | 76 | 270 | 0.0 | 0.0 | 0.00 | 0.00 | 0.00 | 99 | 1020.3 |
| 20260903023331 | 76 | 23 | 0.0 | 0.0 | 0.00 | 0.00 | 0.00 | 99 | 1020.3 |
| 20260903022714 | 76 | 225 | 0.0 | 0.0 | 0.00 | 0.00 | 0.00 | 99 | 1020.6 |
| 20260903022143 | 76 | 315 | 0.0 | 0.0 | 0.00 | 0.00 | 0.00 | 99 | 1020.3 |
| 20260903021535 | 76 | 225 | 0.0 | 0.0 | 0.00 | 0.00 | 0.00 | 99 | 1020.3 |
| 20260903020909 | 76 | 225 | 0.0 | 0.0 | 0.00 | 0.00 | 0.00 | 99 | 1020.3 |
| 20260903020345 | 76 | 225 | 0.0 | 0.0 | 0.00 | 0.00 | 0.00 | 99 | 1020.3 |
| 20260903014529 | 77 | 225 | 1.7 | 1.7 | 0.00 | 0.00 | 0.00 | 99 | 1020.3 |
| 20260903013913 | 77 | 225 | 0.0 | 0.0 | 0.00 | 0.00 | 0.00 | 99 | 1019.9 |
| 20260903012719 | 77 | 203 | 0.9 | 0.9 | 0.00 | 0.00 | 0.00 | 99 | 1019.9 |
| 20260903012116 | 78 | 270 | 0.0 | 0.9 | 0.00 | 0.00 | 0.00 | 99 | 1019.9 |
| 20260903011516 | 78 | 225 | 0.0 | 0.0 | 0.00 | 0.00 | 0.00 | 99 | 1019.9 |
| 20260903010932 | 78 | 225 | 2.6 | 2.6 | 0.00 | 0.00 | 0.00 | 99 | 1019.6 |
| 20260903010347 | 78 | 203 | 1.7 | 1.7 | 0.00 | 0.00 | 0.00 | 99 | 1019.9 |
| 20260903005737 | 78 | 203 | 1.7 | 1.7 | 0.00 | 0.00 | 0.00 | 99 | 1019.6 |
| 20260903005112 | 79 | 203 | 0.0 | 0.0 | 0.00 | 0.00 | 0.00 | 99 | 1019.6 |
| 20260903004510 | 79 | 225 | 0.9 | 1.7 | 0.00 | 0.00 | 0.00 | 99 | 1019.6 |
| 20260903003930 | 79 | 225 | 1.7 | 1.7 | 0.00 | 0.00 | 0.00 | 99 | 1019.6 |
| 20260903003317 | 80 | 203 | 2.6 | 2.6 | 0.00 | 0.00 | 0.00 | 99 | 1019.6 |
| 20260903002744 | 80 | 225 | 1.7 | 1.7 | 0.00 | 0.00 | 0.00 | 98 | 1019.6 |
| 20260903001505 | 81 | 225 | 1.7 | 1.7 | 0.00 | 0.00 | 0.00 | 96 | 1019.3 |
| 20260903000931 | 81 | 225 | 1.7 | 2.6 | 0.00 | 0.00 | 0.00 | 96 | 1019.3 |
| 20260903000344 | 82 | 225 | 0.0 | 0.9 | 0.00 | 0.00 | 0.00 | 94 | 1019.3 |
| 20260902235720 | 82 | 203 | 1.7 | 1.7 | 0.00 | 0.00 | 0.00 | 94 | 1019.3 |
| 20260902235116 | 83 | 180 | 1.7 | 1.7 | 0.00 | 0.00 | 0.00 | 93 | 1019.3 |
| 20260902234516 | 83 | 203 | 1.7 | 1.7 | 0.00 | 0.00 | 0.00 | 92 | 1019.3 |
| 20260902233910 | 84 | 203 | 1.7 | 1.7 | 0.00 | 0.00 | 0.00 | 89 | 1019.3 |
| 20260902233347 | 85 | 203 | 0.9 | 1.7 | 0.00 | 0.00 | 0.00 | 86 | 1019.3 |
| 20260902232721 | 86 | 225 | 1.7 | 2.6 | 0.00 | 0.00 | 0.00 | 85 | 1019.3 |
| 20260902231506 | 88 | 203 | 1.7 | 1.7 | 0.00 | 0.00 | 0.00 | 81 | 1019.3 |
| 20260902230925 | 91 | 225 | 1.7 | 2.6 | 0.00 | 0.00 | 0.00 | 75 | 1019.3 |
| 20260902225744 | 90 | 203 | 3.5 | 3.5 | 0.00 | 0.00 | 0.00 | 76 | 1019.3 |
| 20260902225108 | 92 | 180 | 2.6 | 2.6 | 0.00 | 0.00 | 0.00 | 72 | 1019.3 |
| 20260902224527 | 93 | 225 | 1.7 | 2.6 | 0.00 | 0.00 | 0.00 | 71 | 1019.3 |
| 20260902223919 | 94 | 225 | 2.6 | 3.5 | 0.00 | 0.00 | 0.00 | 70 | 1019.3 |
| 20260902223305 | 94 | 225 | 1.7 | 2.6 | 0.00 | 0.00 | 0.00 | 70 | 1019.3 |
| 20260902222712 | 94 | 180 | 2.6 | 2.6 | 0.00 | 0.00 | 0.00 | 69 | 1019.3 |
| 20260902222134 | 94 | 225 | 3.5 | 3.5 | 0.00 | 0.00 | 0.00 | 69 | 1019.3 |
| 20260902221527 | 95 | 203 | 3.5 | 3.5 | 0.00 | 0.00 | 0.00 | 67 | 1019.3 |
| 20260902220948 | 96 | 203 | 2.6 | 3.5 | 0.00 | 0.00 | 0.00 | 66 | 1019.3 |